When you browse on this site, cookies collect data to enhance your experience and personalize the content and advertising you see.
Visit our Privacy Policy to learn more. By continuing to use the site, you agree to this use of cookies and data.
  • In Netherlands
  • List of Countries
  • For 7 days
  • Water Temperature
  • Satellite Maps
  • Weather Map
  • Weather Widgets
  • user-avatar
    Login

    Hourly Weather Koronowo

    Today, 26 June, Wednesday

    Time Temperature Precipitation Wind Pressure Humidity
    00:00 +23°C° 0 mm 2 mps 758 mmHg 91%
    01:00 +23°C° 0 mm 2 mps 757 mmHg 90%
    02:00 +23°C° 0 mm 2 mps 757 mmHg 90%
    03:00 +23°C° 0 mm 2 mps 757 mmHg 90%
    04:00 +23°C° 0 mm 2 mps 756 mmHg 89%
    05:00 +24°C° 0 mm 2 mps 756 mmHg 85%
    06:00 +26°C° 0 mm 2 mps 756 mmHg 80%
    07:00 +27°C° 0 mm 2 mps 756 mmHg 76%
    08:00 +29°C° 0 mm 3 mps 756 mmHg 70%
    09:00 +31°C° 0 mm 3 mps 756 mmHg 64%
    10:00 +33°C° 0 mm 4 mps 756 mmHg 58%
    11:00 +34°C° 0 mm 4 mps 756 mmHg 56%
    12:00 +34°C° 0 mm 5 mps 755 mmHg 54%
    13:00 +35°C° 0 mm 5 mps 755 mmHg 51%
    14:00 +35°C° 0.1 mm 5 mps 754 mmHg 53%
    15:00 +35°C° 0.1 mm 4 mps 754 mmHg 55%
    16:00 +35°C° 0.1 mm 4 mps 753 mmHg 56%
    17:00 +33°C° 0.1 mm 4 mps 753 mmHg 60%
    18:00 +32°C° 0.1 mm 4 mps 753 mmHg 64%
    19:00 +29°C° 0.1 mm 4 mps 753 mmHg 68%
    20:00 +28°C° 0.1 mm 4 mps 753 mmHg 74%
    21:00 +26°C° 0.1 mm 5 mps 753 mmHg 80%
    22:00 +23°C° 0.1 mm 5 mps 753 mmHg 86%
    23:00 +21°C° 0 mm 5 mps 753 mmHg 85%

    Tomorrow, 27 June, Thursday

    Time Temperature Precipitation Wind Pressure Humidity
    00:00 +20°C° 0 mm 5 mps 753 mmHg 84%
    01:00 +19°C° 0 mm 5 mps 753 mmHg 83%
    02:00 +19°C° 0 mm 6 mps 753 mmHg 81%
    03:00 +19°C° 0 mm 6 mps 753 mmHg 79%
    04:00 +17°C° 0 mm 7 mps 753 mmHg 77%
    05:00 +17°C° 0 mm 7 mps 753 mmHg 76%
    06:00 +16°C° 0 mm 7 mps 754 mmHg 74%
    07:00 +16°C° 0 mm 7 mps 754 mmHg 73%
    08:00 +17°C° 0 mm 7 mps 754 mmHg 71%
    09:00 +17°C° 0 mm 7 mps 754 mmHg 69%
    10:00 +18°C° 0 mm 7 mps 754 mmHg 67%
    11:00 +20°C° 0 mm 7 mps 754 mmHg 65%
    12:00 +21°C° 0 mm 7 mps 755 mmHg 64%
    13:00 +22°C° 0 mm 7 mps 755 mmHg 62%
    14:00 +21°C° 0 mm 7 mps 755 mmHg 64%
    15:00 +21°C° 0 mm 7 mps 755 mmHg 65%
    16:00 +21°C° 0 mm 7 mps 755 mmHg 66%
    17:00 +20°C° 0 mm 6 mps 755 mmHg 70%
    18:00 +20°C° 0 mm 5 mps 755 mmHg 74%
    19:00 +19°C° 0 mm 4 mps 755 mmHg 78%
    20:00 +18°C° 0 mm 4 mps 755 mmHg 83%
    21:00 +16°C° 0 mm 3 mps 756 mmHg 89%
    22:00 +15°C° 0 mm 2 mps 756 mmHg 94%
    23:00 +14°C° 0 mm 2 mps 756 mmHg 94%

    Day after tomorrow, 28 June, Friday

    Time Temperature Precipitation Wind Pressure Humidity
    00:00 +14°C° 0 mm 2 mps 756 mmHg 95%
    01:00 +13°C° 0 mm 1 mps 756 mmHg 95%
    02:00 +14°C° 0 mm 2 mps 756 mmHg 93%
    03:00 +14°C° 0 mm 2 mps 756 mmHg 90%
    04:00 +14°C° 0 mm 2 mps 756 mmHg 88%
    05:00 +15°C° 0 mm 2 mps 756 mmHg 83%
    06:00 +17°C° 0 mm 2 mps 756 mmHg 78%
    07:00 +19°C° 0 mm 3 mps 756 mmHg 73%
    08:00 +20°C° 0 mm 3 mps 756 mmHg 65%
    09:00 +21°C° 0 mm 3 mps 756 mmHg 56%
    10:00 +22°C° 0 mm 4 mps 756 mmHg 48%
    11:00 +23°C° 0 mm 4 mps 756 mmHg 45%
    12:00 +23°C° 0 mm 5 mps 756 mmHg 43%
    13:00 +25°C° 0 mm 5 mps 757 mmHg 40%
    14:00 +25°C° 0 mm 5 mps 757 mmHg 40%
    15:00 +23°C° 0 mm 6 mps 757 mmHg 40%
    16:00 +23°C° 0 mm 6 mps 757 mmHg 39%
    17:00 +22°C° 0 mm 5 mps 757 mmHg 46%
    18:00 +21°C° 0 mm 4 mps 757 mmHg 52%
    19:00 +19°C° 0 mm 3 mps 757 mmHg 59%
    20:00 +18°C° 0 mm 2 mps 757 mmHg 63%
    21:00 +16°C° 0 mm 2 mps 758 mmHg 67%
    22:00 +14°C° 0 mm 1 mps 758 mmHg 71%
    23:00 +14°C° 0 mm 1 mps 758 mmHg 73%

    29 June, Saturday

    Time Temperature Precipitation Wind Pressure Humidity
    00:00 +13°C° 0 mm 1 mps 758 mmHg 75%
    01:00 +13°C° 0 mm 1 mps 758 mmHg 78%
    02:00 +13°C° 0 mm 1 mps 758 mmHg 79%
    03:00 +13°C° 0 mm 2 mps 758 mmHg 80%
    04:00 +13°C° 0 mm 2 mps 758 mmHg 80%
    05:00 +14°C° 0 mm 2 mps 757 mmHg 77%
    06:00 +16°C° 0 mm 3 mps 757 mmHg 74%
    07:00 +18°C° 0 mm 3 mps 757 mmHg 70%
    08:00 +20°C° 0 mm 3 mps 757 mmHg 65%
    09:00 +22°C° 0 mm 4 mps 757 mmHg 60%
    10:00 +23°C° 0 mm 4 mps 757 mmHg 54%
    11:00 +25°C° 0 mm 4 mps 757 mmHg 52%
    12:00 +26°C° 0 mm 4 mps 757 mmHg 49%
    13:00 +26°C° 0 mm 4 mps 756 mmHg 47%
    14:00 +26°C° 0 mm 4 mps 756 mmHg 47%
    15:00 +27°C° 0 mm 4 mps 756 mmHg 48%
    16:00 +27°C° 0 mm 4 mps 756 mmHg 49%
    17:00 +26°C° 0 mm 3 mps 755 mmHg 55%
    18:00 +25°C° 0 mm 3 mps 755 mmHg 61%
    19:00 +24°C° 0 mm 2 mps 755 mmHg 66%
    20:00 +21°C° 0 mm 2 mps 755 mmHg 70%
    21:00 +21°C° 0 mm 1 mps 755 mmHg 73%
    22:00 +20°C° 0 mm 1 mps 755 mmHg 77%
    23:00 +19°C° 0 mm 1 mps 755 mmHg 78%

    30 June, Sunday

    Time Temperature Precipitation Wind Pressure Humidity
    00:00 +18°C° 0 mm 2 mps 755 mmHg 80%
    01:00 +17°C° 0 mm 2 mps 754 mmHg 81%
    02:00 +17°C° 0 mm 2 mps 754 mmHg 80%
    03:00 +17°C° 0 mm 2 mps 754 mmHg 80%
    04:00 +16°C° 0 mm 2 mps 754 mmHg 79%
    05:00 +18°C° 0 mm 2 mps 754 mmHg 73%
    06:00 +20°C° 0 mm 3 mps 754 mmHg 67%
    07:00 +22°C° 0 mm 3 mps 754 mmHg 61%
    08:00 +25°C° 0 mm 3 mps 754 mmHg 57%
    09:00 +26°C° 0 mm 4 mps 753 mmHg 52%
    10:00 +28°C° 0 mm 4 mps 753 mmHg 48%
    11:00 +29°C° 0 mm 5 mps 753 mmHg 46%
    12:00 +30°C° 0 mm 5 mps 752 mmHg 45%
    13:00 +30°C° 0 mm 5 mps 752 mmHg 43%
    14:00 +32°C° 0 mm 6 mps 752 mmHg 44%
    15:00 +32°C° 0 mm 6 mps 751 mmHg 45%
    16:00 +32°C° 0 mm 6 mps 751 mmHg 47%
    17:00 +29°C° 0 mm 5 mps 750 mmHg 52%
    18:00 +28°C° 0 mm 5 mps 750 mmHg 57%
    19:00 +27°C° 0 mm 4 mps 750 mmHg 63%
    20:00 +26°C° 0 mm 4 mps 750 mmHg 64%
    21:00 +25°C° 0 mm 4 mps 750 mmHg 65%
    22:00 +22°C° 0 mm 4 mps 750 mmHg 65%
    23:00 +21°C° 0 mm 4 mps 750 mmHg 71%

    1 July, Monday

    Time Temperature Precipitation Wind Pressure Humidity
    00:00 +20°C° 0 mm 4 mps 750 mmHg 77%
    01:00 +19°C° 0 mm 4 mps 750 mmHg 83%
    02:00 +18°C° 0 mm 3 mps 750 mmHg 81%
    03:00 +17°C° 0 mm 3 mps 750 mmHg 80%
    04:00 +16°C° 0 mm 3 mps 751 mmHg 78%
    05:00 +17°C° 0 mm 3 mps 751 mmHg 77%
    06:00 +18°C° 0 mm 4 mps 751 mmHg 75%
    07:00 +19°C° 0 mm 4 mps 751 mmHg 74%
    08:00 +20°C° 0 mm 4 mps 751 mmHg 68%
    09:00 +21°C° 0 mm 4 mps 751 mmHg 63%
    10:00 +23°C° 0 mm 5 mps 752 mmHg 57%
    11:00 +23°C° 0 mm 5 mps 751 mmHg 54%
    12:00 +25°C° 0 mm 5 mps 751 mmHg 51%
    13:00 +26°C° 0 mm 5 mps 751 mmHg 48%
    14:00 +26°C° 0 mm 5 mps 750 mmHg 48%
    15:00 +26°C° 0 mm 4 mps 750 mmHg 49%
    16:00 +25°C° 0 mm 4 mps 750 mmHg 50%
    17:00 +24°C° 0 mm 3 mps 749 mmHg 55%
    18:00 +24°C° 0 mm 2 mps 749 mmHg 60%
    19:00 +23°C° 0 mm 1 mps 749 mmHg 65%
    20:00 +20°C° 0 mm 2 mps 749 mmHg 68%
    21:00 +19°C° 0 mm 2 mps 749 mmHg 71%
    22:00 +18°C° 0 mm 3 mps 748 mmHg 74%
    23:00 +17°C° 0.2 mm 3 mps 749 mmHg 78%
    Show more